{"data":{"norad_id":65196,"epoch":"2026-09-20T13:42:36.773280Z","epoch_age_seconds":114692,"freshness":"FRESH","line1":"1 65196U 25175Y   26263.57125895  .00014152  00000+0  43956-3 0  9990","line2":"2 65196  97.2850 132.5538 0003254 103.4705 256.6901 15.33463774 62146","mean_motion":15.33463774,"eccentricity":0.0003254,"inclination_deg":97.285,"raan_deg":132.5538,"arg_perigee_deg":103.4705,"mean_anomaly_deg":256.6901,"bstar":0.00043956,"rev_number":6214,"period_min":93.905054975234,"perigee_km":463.26040147995,"apogee_km":467.71423218535,"semimajor_km":6843.6243168327,"source":"CELESTRAK","updated_at":"2026-09-21T09:00:35.532357Z"}}